Weather in Arossim

India     15°22′22″N   73°53′25″E
temp.,
°C
wind,
m/s
gust,
m/s
humid.,
%
clouds,
%
prec.,
mm/h
press.,
hPa
HPBL,
m
16 may, sun
sun1623:30+25ese61487100 13.9 9981089
02:30+25ese81991100 8.4 9941496
05:30+25se132493100 22.6 9931704
08:30+26s131991100 11.6 9991450
11:30+26ssw111893100 24.7 10011478
14:30+26ssw91488100 8.3 10011123
17:30+26ssw81390100 17.4 10021016
20:30+26ssw61189100 7.5 1004709
17 may, mon
mon1723:30+26s71185100 13.1 1004616
02:30+26s61184100 3.1 1003557
05:30+26s5108592 4.4 1004494
08:30+28s697942 1.8 1007970
11:30+30s796831 3.1 10071303
14:30+30s686627 0.4 10061352
17:30+29s577262 0.5 10051005
20:30+27sse3681100 0.0 1007304
18 may, tue
tue1823:30+26sse2585100 0.0 1007251
02:30+26sse258678 0.1 1005228
05:30+26sse248392 0.1 1005202
08:30+29s3573100 0.1 1007826
11:30+31s5665100 0.3 10071173
14:30+32s566287 0.6 10051253
17:30+30ssw4570100 1.1 1006937
20:30+27s238280 0.4 1008163
19 may, wed
wed1923:30+27se1285100 0.6 100885
02:30+26ese118887 0.0 100560
05:30+26e118817 0.1 100543
08:30+29ese237391 0.8 1008604
11:30+30s457051 4.1 1007926
14:30+32s5663100 1.4 10051196
17:30+29sw457298 2.6 1005888
20:30+28s12817 0.2 100768
20 may, thu
thu2023:30+27sse228614 1.5 100786
02:30+26s128885 0.3 100675
05:30+26se22906 0.4 100680
08:30+29sse23749 0.0 1008695
11:30+32sw436098 0.1 10081343
14:30+31sw446496 0.6 10061161
17:30+30ssw456816 0.7 1006933
20:30+28ssw367942 0.1 1007418